[[{"header":{"parameterUnit":"m.s-1","parameterCategory":1,"la1":30.2991,"la2":30.254,"lo1":-89.0895,"lo2":-89.0444,"dy":0.0017,"dx":0.0017,"nx":28,"ny":28,"refTime":"2025-07-19T03:00:00:Z","depth":0,"parameterNumber":2,"parameterNumberName":"U-component_of_WINDS"},"data":[0,0,0,0,0,0,0,0,0,0,0,0,0,0,0,0,0,0,0,0,0,0,0,0,0,0,0,0,0,0,0,0,0,0,0,0,0,0,0,0,0,0,0,0,0,0,0,0,0,0,0,0,0,0,0,0,0,0,1.7415,1.7416,0,1.7468,1.7469,1.7469,1.7516,1.7516,1.7517,1.7517,1.7571,1.7572,1.7573,0,0,0,0,0,0,0,0,0,0,0,0,0,1.7355,1.7356,1.7415,1.7416,1.7416,1.7468,1.7469,1.7469,1.7515,1.7516,1.7517,1.7517,1.7571,1.7572,1.7573,0,0,0,0,0,0,0,0,0,0,0,0,0,1.7392,1.7356,1.7415,1.7446,1.7449,1.7468,1.7469,1.747,1.7515,1.7516,1.7517,1.7518,1.7571,1.7572,1.7573,1.7566,0,0,1.7578,1.7578,0,0,0,0,0,0,0,0,1.7389,1.7394,1.744,1.7443,1.7447,1.7486,1.7467,1.7502,1.7515,1.749,1.7517,1.7518,1.7542,1.7546,1.7554,1.7569,1.7571,1.7578,1.7579,1.7579,1.758,0,0,0,0,0,0,0,1.7387,1.7392,1.7436,1.7441,1.7445,1.7457,1.7463,1.7474,1.7511,1.7492,1.7496,1.7501,1.7544,1.7553,1.7556,1.7572,1.7578,1.7579,1.758,1.7581,1.7585,1.7585,0,0,0,0,0,0,1.738,1.7389,1.7434,1.7438,1.742,1.7457,1.7464,1.7473,1.7511,1.7518,1.7501,1.7503,1.755,1.7554,1.7558,1.7553,1.7579,1.7581,1.7581,1.7586,1.7585,1.7585,0,0,0,0,0,0,1.7378,1.7383,1.7432,1.7414,1.7422,1.7458,1.7467,1.7473,1.7482,1.7517,1.7524,1.7503,1.7551,1.7556,1.7564,1.7556,1.7581,1.7583,1.7587,1.7586,1.7585,1.7543,0,0,0,0,0,0,1.7376,1.7382,1.7379,1.7414,1.7422,1.7437,1.7466,1.7474,1.7484,1.7488,1.7521,1.7527,1.7552,1.7562,1.7566,1.7558,1.7584,1.7588,1.7587,1.7585,1.7546,1.7541,1.7537,0,0,0,0,0,1.7374,1.7365,1.7379,1.7384,1.742,1.7436,1.7441,1.747,1.7483,1.7481,1.7504,1.7526,1.7556,1.7562,1.7567,1.756,1.7589,1.7587,1.7585,1.7548,1.7542,1.7537,0,0,0,0,0,0,1.7328,1.737,1.7386,1.7388,1.7409,1.7444,1.7442,1.7463,1.7479,1.7482,1.7517,1.7524,1.7529,1.7545,1.7551,1.7556,1.7575,1.7575,1.7545,1.754,1.7536,1.7532,1.7585,0,0,0,0,0,1.7318,1.7328,1.7365,1.7363,1.7373,1.7406,1.7414,1.7435,1.7457,1.7465,1.7489,1.751,1.7525,1.7533,1.7548,1.7548,1.7557,1.7546,1.7542,1.7538,1.7537,1.754,1.7536,1.7579,1.7579,1.7579,0,0,1.7298,1.7323,1.7327,1.7355,1.7373,1.7383,1.7412,1.7421,1.743,1.7467,1.7477,1.7495,1.7521,1.7525,1.7528,1.7539,1.7527,1.7536,1.7533,1.7534,1.7538,1.7534,1.753,1.7578,1.7578,1.7578,0,0,1.7267,1.7286,1.7288,1.7305,1.7333,1.7355,1.7355,1.7388,1.7402,1.7412,1.7441,1.7451,1.7475,1.7493,1.7505,1.7482,1.7503,1.7486,1.7464,1.7466,1.7463,1.746,1.7453,1.745,1.7485,1.7485,1.7485,0,1.7238,1.7255,1.7286,1.7294,1.7306,1.7341,1.7343,1.7359,1.7389,1.7397,1.7409,1.7441,1.746,1.747,1.7465,1.7473,1.7475,1.7482,1.7461,1.7458,1.7456,1.745,1.7447,1.7483,1.7483,1.7483,1.7483,0,1.7219,1.723,1.7228,1.7257,1.7269,1.7274,1.7307,1.7315,1.7335,1.7356,1.7367,1.7392,1.7414,1.7418,1.7437,1.7431,1.7437,1.7454,1.7474,1.7449,1.7444,1.7442,1.748,1.748,1.7481,1.7482,0,0,1.7159,1.7207,1.7206,1.7221,1.7254,1.7263,1.727,1.7292,1.7299,1.7319,1.7327,1.7347,1.7364,1.7377,1.7399,1.7401,1.7383,1.7418,1.7419,1.7411,1.738,1.7367,1.7364,1.7397,1.7397,1.7397,1.7378,0,1.7134,1.7149,1.7178,1.7184,1.7195,1.7229,1.7236,1.7257,1.7278,1.7291,1.7314,1.7328,1.7348,1.7357,1.736,1.7384,1.7377,1.7386,1.7405,1.7406,1.7398,1.7361,1.7347,1.7328,1.7376,1.7376,1.7375,0,1.7106,1.7125,1.7132,1.7167,1.7173,1.7178,1.7201,1.7212,1.7238,1.7253,1.7269,1.7293,1.7304,1.7322,1.7338,1.7343,1.7353,1.7366,1.7366,1.7369,1.7389,1.7364,1.7323,1.732,1.7372,1.7372,1.7373,0,1.7064,1.7091,1.7099,1.711,1.715,1.7153,1.717,1.7197,1.7208,1.7228,1.7237,1.7257,1.7269,1.7285,1.7315,1.7325,1.7327,1.7348,1.7341,1.734,1.734,1.7339,1.73,1.7345,1.7345,1.7345,1.7345,0,1.7033,1.7036,1.7081,1.7086,1.7091,1.7125,1.7129,1.7149,1.7173,1.7183,1.7213,1.7222,1.7261,1.7274,1.7298,1.7308,1.7312,1.7325,1.7332,1.7323,1.7321,1.733,1.7332,1.7344,1.7345,1.7345,1.7345,0,1.6985,1.7016,1.7027,1.7064,1.7074,1.7076,1.7108,1.7115,1.7138,1.715,1.7155,1.7191,1.7209,1.724,1.7267,1.7283,1.7288,1.7299,1.728,1.7284,1.7275,1.7276,1.7241,1.7238,1.7283,1.7283,1.7282,0,1.6964,1.6967,1.7005,1.7015,1.703,1.7044,1.7057,1.7091,1.7102,1.7133,1.7136,1.7156,1.7175,1.7202,1.7231,1.7252,1.7263,1.7249,1.7266,1.7258,1.7264,1.7264,1.7265,1.7245,1.7245,1.7244,1.7244,0,1.6923,1.6938,1.6955,1.6977,1.6991,1.701,1.703,1.7036,1.7075,1.7087,1.7106,1.712,1.7148,1.7168,1.7193,1.7211,1.7234,1.7238,1.7238,1.7229,1.7219,1.7226,1.727,1.7239,1.7239,1.724,1.724,1.724,1.6889,1.6894,1.6922,1.694,1.6959,1.6978,1.6987,1.7011,1.7027,1.7053,1.7072,1.709,1.7117,1.7154,1.7171,1.7186,1.7196,1.7195,1.7195,1.7195,1.7192,1.7216,1.719,1.719,1.7191,1.7191,1.7191,0,1.685,1.687,1.6886,1.6915,1.6929,1.695,1.6974,1.6985,1.7,1.7024,1.7041,1.7064,1.7084,1.7115,1.7138,1.7144,1.7155,1.7149,1.7149,1.7153,1.7181,1.7179,1.714,1.714,1.714,1.714,1.714,1.714,1.6832,1.6843,1.6861,1.6882,1.6902,1.692,1.6932,1.6951,1.697,1.6993,1.7011,1.7031,1.7058,1.7083,1.7103,1.7112,1.7119,1.711,1.7122,1.7146,1.7151,1.7156,1.7155,1.7111,1.7111,1.7093,1.7093,1.7093]},{"header":{"parameterUnit":"m.s-1","parameterCategory":1,"la1":30.2991,"la2":30.254,"lo1":-89.0895,"lo2":-89.0444,"dy":0.0017,"dx":0.0017,"nx":28,"ny":28,"refTime":"2025-07-19T03:00:00:Z","depth":0,"parameterNumber":3,"parameterNumberName":"V-component_of_WINDS"},"data":[0,0,0,0,0,0,0,0,0,0,0,0,0,0,0,0,0,0,0,0,0,0,0,0,0,0,0,0,0,0,0,0,0,0,0,0,0,0,0,0,0,0,0,0,0,0,0,0,0,0,0,0,0,0,0,0,0,0,-1.1416,-1.1417,0,-1.1506,-1.1508,-1.1509,-1.1539,-1.1538,-1.1538,-1.1538,-1.1631,-1.1634,-1.1636,0,0,0,0,0,0,0,0,0,0,0,0,0,-1.127,-1.1272,-1.1416,-1.1417,-1.1418,-1.1506,-1.1508,-1.1509,-1.1539,-1.1538,-1.1538,-1.1537,-1.163,-1.1633,-1.1637,0,0,0,0,0,0,0,0,0,0,0,0,0,-1.1344,-1.1273,-1.1415,-1.1444,-1.1447,-1.1506,-1.1508,-1.1509,-1.1539,-1.1538,-1.1538,-1.1537,-1.1629,-1.1633,-1.1637,-1.1675,0,0,-1.165,-1.1652,0,0,0,0,0,0,0,0,-1.134,-1.1349,-1.1438,-1.1442,-1.1446,-1.1511,-1.149,-1.1565,-1.1539,-1.1504,-1.1538,-1.1537,-1.1591,-1.1599,-1.1617,-1.1679,-1.1683,-1.1651,-1.1653,-1.1655,-1.1656,0,0,0,0,0,0,0,-1.1335,-1.1346,-1.1452,-1.144,-1.1444,-1.1452,-1.1462,-1.1505,-1.155,-1.1507,-1.1509,-1.152,-1.1593,-1.1613,-1.1619,-1.1685,-1.165,-1.1654,-1.1657,-1.1659,-1.1785,-1.1786,0,0,0,0,0,0,-1.1325,-1.1341,-1.1449,-1.1454,-1.139,-1.1455,-1.1466,-1.149,-1.1549,-1.1558,-1.152,-1.1521,-1.1606,-1.1614,-1.1623,-1.1673,-1.1655,-1.1659,-1.1661,-1.1784,-1.1785,-1.1786,0,0,0,0,0,0,-1.1321,-1.1334,-1.1445,-1.1399,-1.1413,-1.1458,-1.1485,-1.1492,-1.1512,-1.1559,-1.1568,-1.1532,-1.1606,-1.1617,-1.1662,-1.1676,-1.1661,-1.1665,-1.1783,-1.1785,-1.1786,-1.1771,0,0,0,0,0,0,-1.1317,-1.1333,-1.1347,-1.1399,-1.1416,-1.1482,-1.1486,-1.1495,-1.1519,-1.1521,-1.1572,-1.158,-1.1606,-1.1656,-1.1667,-1.1682,-1.1668,-1.1782,-1.1784,-1.1785,-1.1771,-1.1772,-1.1773,0,0,0,0,0,-1.1312,-1.1339,-1.1347,-1.136,-1.1434,-1.1483,-1.1493,-1.1522,-1.152,-1.1536,-1.1566,-1.1579,-1.1673,-1.166,-1.1673,-1.1689,-1.1782,-1.1783,-1.1785,-1.177,-1.1771,-1.1773,0,0,0,0,0,0,-1.1287,-1.1346,-1.1356,-1.1401,-1.1437,-1.1488,-1.1508,-1.1522,-1.1559,-1.1559,-1.1594,-1.1605,-1.1649,-1.1673,-1.1658,-1.173,-1.1728,-1.1732,-1.1712,-1.1714,-1.1715,-1.1708,-1.1672,0,0,0,0,0,-1.1287,-1.1321,-1.1371,-1.1405,-1.1423,-1.1462,-1.1485,-1.1504,-1.1543,-1.1558,-1.1592,-1.1629,-1.1668,-1.1692,-1.173,-1.1774,-1.1787,-1.1792,-1.1793,-1.1793,-1.1797,-1.1824,-1.1828,-1.1792,-1.1792,-1.1792,0,0,-1.1287,-1.1323,-1.1343,-1.1402,-1.1432,-1.1467,-1.1475,-1.1512,-1.1539,-1.1564,-1.1609,-1.1636,-1.168,-1.1725,-1.1747,-1.1747,-1.181,-1.1796,-1.1796,-1.1799,-1.1826,-1.183,-1.1833,-1.1793,-1.1793,-1.1793,0,0,-1.1305,-1.1335,-1.1368,-1.1399,-1.1445,-1.1471,-1.1479,-1.1529,-1.1547,-1.1593,-1.1613,-1.1646,-1.1711,-1.1742,-1.1766,-1.1798,-1.1811,-1.1809,-1.1815,-1.1841,-1.1843,-1.1846,-1.1859,-1.1863,-1.1812,-1.1812,-1.1812,0,-1.1299,-1.1353,-1.1383,-1.142,-1.1446,-1.1471,-1.1505,-1.1533,-1.1589,-1.1606,-1.1606,-1.1689,-1.172,-1.1774,-1.1782,-1.18,-1.1811,-1.1804,-1.1841,-1.1844,-1.1846,-1.1859,-1.1863,-1.1812,-1.1812,-1.1812,-1.1812,0,-1.1344,-1.1381,-1.1403,-1.1456,-1.1485,-1.152,-1.1556,-1.1581,-1.1599,-1.1625,-1.1673,-1.1711,-1.1758,-1.1772,-1.1789,-1.1829,-1.1828,-1.1834,-1.1832,-1.1849,-1.1861,-1.1866,-1.1811,-1.1811,-1.1812,-1.1812,0,0,-1.1349,-1.142,-1.1427,-1.1453,-1.1506,-1.1536,-1.1572,-1.1618,-1.164,-1.1678,-1.171,-1.1765,-1.1771,-1.1799,-1.1819,-1.1842,-1.1867,-1.1845,-1.1847,-1.1849,-1.1915,-1.1911,-1.1916,-1.1876,-1.1877,-1.1878,-1.1912,0,-1.1375,-1.1441,-1.147,-1.1524,-1.156,-1.1585,-1.1617,-1.1653,-1.168,-1.1714,-1.1743,-1.1782,-1.1786,-1.1803,-1.1827,-1.1859,-1.1881,-1.1856,-1.1907,-1.1909,-1.1896,-1.1922,-1.1918,-1.1948,-1.1917,-1.1917,-1.1918,0,-1.1413,-1.1452,-1.1509,-1.156,-1.1576,-1.1604,-1.165,-1.1682,-1.1725,-1.1742,-1.1774,-1.1794,-1.1835,-1.183,-1.1888,-1.1871,-1.1893,-1.1912,-1.1914,-1.192,-1.1915,-1.193,-1.1959,-1.1963,-1.1926,-1.1925,-1.1925,0,-1.1412,-1.1479,-1.1522,-1.1543,-1.1603,-1.1622,-1.1648,-1.169,-1.1716,-1.1756,-1.1774,-1.1818,-1.1842,-1.1876,-1.1908,-1.1901,-1.1962,-1.196,-1.1979,-1.1978,-1.1991,-1.199,-1.2024,-1.2004,-1.2004,-1.2004,-1.2004,0,-1.1438,-1.1473,-1.1523,-1.1549,-1.1589,-1.1623,-1.1662,-1.1689,-1.1727,-1.176,-1.1784,-1.1815,-1.1854,-1.189,-1.1916,-1.196,-1.197,-1.1987,-1.1993,-1.1985,-1.1983,-1.2,-1.2,-1.2005,-1.2005,-1.2004,-1.2004,0,-1.1444,-1.1479,-1.1528,-1.1581,-1.1595,-1.1622,-1.1668,-1.1695,-1.1723,-1.1765,-1.1776,-1.182,-1.1864,-1.1899,-1.1956,-1.1973,-1.202,-1.2027,-1.2006,-1.2009,-1.2026,-1.2025,-1.2074,-1.2083,-1.2056,-1.2056,-1.2056,0,-1.1459,-1.1486,-1.1542,-1.1566,-1.1592,-1.163,-1.1657,-1.1692,-1.172,-1.1771,-1.1793,-1.1838,-1.1877,-1.1946,-1.1983,-1.2027,-1.2036,-1.205,-1.2043,-1.2034,-1.2038,-1.2036,-1.2039,-1.2051,-1.2051,-1.2051,-1.2051,0,-1.1481,-1.1498,-1.1536,-1.1581,-1.1613,-1.165,-1.1687,-1.1706,-1.1748,-1.1778,-1.1823,-1.1853,-1.1912,-1.1957,-1.2006,-1.2033,-1.205,-1.2053,-1.206,-1.2052,-1.204,-1.2048,-1.2009,-1.2052,-1.2052,-1.2052,-1.2052,-1.2052,-1.1493,-1.1519,-1.1563,-1.1605,-1.1637,-1.1672,-1.1701,-1.1733,-1.1771,-1.1822,-1.1841,-1.1888,-1.1931,-1.1998,-1.2026,-1.2064,-1.2065,-1.2074,-1.2077,-1.2079,-1.2079,-1.2033,-1.2072,-1.2072,-1.2072,-1.2072,-1.2072,0,-1.1518,-1.1548,-1.1587,-1.1639,-1.1673,-1.1685,-1.1728,-1.1755,-1.1796,-1.1836,-1.1873,-1.1926,-1.1971,-1.2012,-1.2059,-1.2081,-1.209,-1.2093,-1.2092,-1.2098,-1.2074,-1.2064,-1.2085,-1.2085,-1.2085,-1.2085,-1.2085,-1.2085,-1.1535,-1.158,-1.1602,-1.1664,-1.1694,-1.174,-1.1763,-1.1796,-1.1828,-1.1886,-1.1923,-1.195,-1.1991,-1.2041,-1.2083,-1.2094,-1.211,-1.2111,-1.2124,-1.2101,-1.2099,-1.2098,-1.2089,-1.2114,-1.2114,-1.2145,-1.2145,-1.2145]}]]